This is the latest recevied weather packets stored in our database for station/object NY5V. If no packets are shown the sender has not sent any weather packets the latest 10 day(s).
| Time | Temp. | Humidity | Pressure | Rain* | Wind** | Luminosity | Snow |
|---|---|---|---|---|---|---|---|
| 1777754291 | 23.33° C | 40% | 1019.5 hPa | 0 mm | - | 39 W/m² | - |
| 1777753688 | 22.78° C | 39% | 1019.5 hPa | 0 mm | - | 48 W/m² | - |
| 1777753084 | 22.78° C | 42% | 1019.5 hPa | 0 mm | - | 59 W/m² | - |
| 1777752482 | 22.78° C | 43% | 1019.7 hPa | 0 mm | - | 50 W/m² | - |
| 1777751883 | 23.33° C | 43% | 1019.7 hPa | 0 mm | - | 97 W/m² | - |
| 1777751281 | 22.78° C | 43% | 1020 hPa | 0 mm | - | 72 W/m² | - |
| 1777750679 | 22.22° C | 43% | 1020.3 hPa | 0 mm | - | 58 W/m² | - |
| 1777750077 | 22.22° C | 48% | 1020.2 hPa | 0 mm | - | 74 W/m² | - |
| 1777749478 | 22.22° C | 48% | 1020.3 hPa | 0 mm | - | 83 W/m² | - |
| 1777748873 | 22.22° C | 48% | 1020.5 hPa | 0 mm | - | 196 W/m² | - |
| 1777748270 | 22.22° C | 49% | 1020.5 hPa | 0 mm | - | 723 W/m² | - |
| 1777747669 | 22.22° C | 46% | 1020.5 hPa | 0 mm | - | 728 W/m² | - |
| 1777747068 | 22.22° C | 48% | 1020.7 hPa | 0 mm | - | 624 W/m² | - |
| 1777746465 | 22.22° C | 47% | 1020.7 hPa | 0 mm | - | 741 W/m² | - |
| 1777745863 | 22.22° C | 47% | 1021 hPa | 0 mm | - | 791 W/m² | - |
| 1777745260 | 22.22° C | 47% | 1021.1 hPa | 0 mm | - | 748 W/m² | - |
| 1777744657 | 22.22° C | 48% | 1021.2 hPa | 0 mm | - | 753 W/m² | - |
| 1777744055 | 21.67° C | 50% | 1021.2 hPa | 0 mm | - | 750 W/m² | - |
| 1777743455 | 21.67° C | 51% | 1021.3 hPa | 0 mm | - | 751 W/m² | - |
| 1777742851 | 21.67° C | 50% | 1021.5 hPa | 0 mm | - | 747 W/m² | - |
| 1777742248 | 22.22° C | 52% | 1021.5 hPa | 0 mm | - | 739 W/m² | - |
| 1777741648 | 21.67° C | 50% | 1021.7 hPa | 0 mm | - | 736 W/m² | - |
| 1777741047 | 20.56° C | 48% | 1021.6 hPa | 0 mm | - | 732 W/m² | - |
| 1777740446 | 21.11° C | 56% | 1021.6 hPa | 0 mm | - | 719 W/m² | - |
| 1777739846 | 21.11° C | 55% | 1021.6 hPa | 0 mm | - | 702 W/m² | - |
* Rain latest hour (hover to see other rain measurements)
** Current wind speed in m/s (hover to see current wind gust speed)